Lid_Strength_Index
2 1 1 1 2 4 4 5 7 3 3 7 6 8 7 9 8 9 9 9 9 9 10 10 10 11 11 11 11 13 12 12 12 14 14 14 14 14 14 14 15 15 16 16
2 2 1 2 3 4 4 6 5 3 3 8 8 8 9 8 9 9 9 9 9 9 10 11 11 11 12 12 12 12 12 12 13 15 15 14 14 14 15 15 15 15 16 14
3 2 2 2 3 4 4 6 8 5 5 5 7 8 9 10 10 9 9 9 9 10 11 10 11 12 13 13 13 13 13 12 13 13 13 13 15 15 15 14 15 14 15 14
3 3 2 1 3 4 4 6 6 6 8 7 7 7 7 9 11 10 9 10 9 9 10 11 11 11 13 14 12 13 13 13 13 13 14 14 14 14 15 16 14 16 14 14
3 3 3 3 3 6 5 7 6 7 6 7 7 8 9 9 9 10 10 10 9 9 9 9 10 11 12 12 12 13 13 13 14 14 15 15 16 14 14 15 15 15 14 15
4 4 4 4 4 5 6 6 6 7 7 8 8 8 8 8 8 10 10 9 9 10 9 10 9 10 10 10 12 13 13 13 14 14 15 15 15 13 14 14 13 14 15 14
4 5 4 4 5 5 5 5 5 7 9 8 8 8 7 9 8 9 11 10 9 11 10 10 10 11 12 12 13 12 13 13 14 14 14 15 14 14 13 13 13 12 13 14
4 5 4 4 4 5 4 5 6 6 9 7 8 9 9 10 11 11 11 12 11 10 10 11 13 13 13 14 14 14 13 13 14 14 14 12 15 15 15 15 12 11 13 12
5 5 6 5 4 5 5 5 5 6 7 8 7 9 9 10 11 12 14 13 10 11 10 9 14 13 11 15 16 14 14 13 13 14 17 15 13 14 13 13 14 12 12 13
4 5 5 5 5 5 5 5 5 6 7 7 8 9 10 8 9 11 13 13 13 11 9 11 11 11 11 13 14 16 16 15 15 14 14 12 13 14 14 14 12 12 12 13
4 5 5 4 4 4 6 5 5 7 6 8 10 10 10 10 9 11 12 12 12 12 11 11 10 10 11 12 11 14 14 15 15 13 15 15 14 16 15 11 12 13 13 13
4 5 5 6 5 5 5 7 8 8 9 10 10 10 10 10 11 10 11 9 10 9 9 9 8 12 12 10 12 12 13 10 12 11 10 12 14 12 12 12 12 13 13 13
4 4 5 6 6 6 5 6 7 9 10 11 11 10 11 10 10 10 9 10 9 9 7 7 8 11 10 12 11 12 12 12 12 12 10 12 13 13 13 12 12 12 12 13
4 4 5 4 6 6 6 8 7 9 8 9 11 10 11 10 10 10 10 10 10 8 7 10 9 10 10 10 10 11 12 12 12 12 11 12 12 13 13 13 12 13 13 13
5 5 5 4 4 6 6 7 6 8 9 10 13 12 11 10 10 10 9 10 10 9 8 8 9 10 12 12 12 12 12 11 12 11 8 9 10 12 13 14 14 13 14 14
5 5 5 5 4 6 7 10 8 8 8 10 12 13 12 11 10 10 10 9 9 8 8 8 10 13 11 11 12 8 10 9 8 9 9 11 12 11 13 14 13 13 13 14
5 5 5 4 4 6 9 9 8 6 7 10 14 15 13 11 10 11 11 11 10 9 9 11 10 12 11 11 12 8 8 9 9 10 12 13 12 13 13 13 13 12 13 14
5 5 5 5 5 7 9 8 8 7 10 10 14 15 15 12 12 12 11 10 10 10 9 13 12 13 13 15 12 10 8 9 9 12 11 12 11 12 14 14 14 14 15 15
5 5 5 5 7 9 8 7 8 9 11 15 13 14 14 13 13 12 12 10 11 12 11 12 12 12 14 12 11 10 9 10 10 11 12 12 12 13 14 15 15 15 15 15
4 5 7 10 6 5 7 9 11 12 14 12 14 11 15 13 13 13 12 12 10 13 12 13 14 13 10 9 9 9 8 9 10 13 14 13 13 13 14 15 14 14 15 15
4 8 9 6 4 7 10 15 15 14 15 14 12 12 16 14 14 13 12 13 13 15 12 13 13 14 11 9 9 9 8 7 10 9 10 12 11 13 13 14 14 14 14 15
6 7 6 7 10 12 14 15 14 14 13 13 14 14 13 15 12 12 15 13 14 15 14 15 15 10 10 10 9 8 8 8 10 10 9 11 11 12 13 14 14 14 14 15
5 8 11 12 12 14 15 17 15 14 12 14 14 15 15 16 13 14 14 15 15 13 15 15 12 9 10 10 10 9 8 8 10 10 10 11 11 13 14 14 14 14 15 15
10 12 15 13 14 14 13 13 11 9 9 12 12 14 14 14 15 15 15 14 15 16 16 14 10 10 9 9 10 10 9 9 10 11 11 11 12 13 12 13 14 14 15 15
11 12 16 14 11 10 10 10 11 11 10 11 12 13 12 14 16 15 17 19 17 15 13 10 9 8 8 8 11 10 9 10 10 10 11 11 12 12 13 13 14 15 15 16
12 13 15 12 12 11 10 10 10 10 11 10 10 13 14 15 15 17 16 14 15 11 11 9 10 10 11 11 11 10 10 10 10 10 11 12 12 13 13 13 14 15 16 16
14 14 11 11 12 12 11 10 10 10 12 13 13 15 13 14 14 15 13 12 8 7 8 9 11 12 12 12 12 11 11 11 10 11 11 12 12 12 13 15 15 15 15 15